Time+03,TemperatureF,Dew PointF,Humidity,Sea Level PressureIn,VisibilityMPH,Wind Direction,Wind SpeedMPH,Gust SpeedMPH,PrecipitationIn,Events,Conditions,WindDirDegrees,DateUTC
12:55 AM,60.1,52.3,76,29.95,6.2,SSE,4.6,-,N/A,,Clear,150,2013-01-05 21:55:00
1:55 AM,59.0,52.9,80,29.93,6.2,SSE,6.9,-,N/A,,Clear,160,2013-01-05 22:55:00
2:55 AM,59.0,56.1,90,29.93,6.2,South,8.1,-,N/A,,Clear,170,2013-01-05 23:55:00
3:55 AM,58.3,55.2,90,29.94,6.2,South,9.2,-,N/A,,Clear,170,2013-01-06 00:55:00
4:55 AM,57.4,54.0,88,29.94,6.2,SSE,8.1,-,N/A,,Clear,150,2013-01-06 01:55:00
5:55 AM,58.1,54.3,87,29.94,6.2,SSE,8.1,-,N/A,,Clear,150,2013-01-06 02:55:00
6:55 AM,58.1,54.3,87,29.97,6.2,Calm,Calm,-,N/A,,Clear,0,2013-01-06 03:55:00
7:55 AM,61.7,55.2,79,30.00,6.2,Calm,Calm,-,N/A,,Clear,0,2013-01-06 04:55:00
8:55 AM,65.7,56.8,73,30.01,6.2,SSE,6.9,-,N/A,,Clear,160,2013-01-06 05:55:00
9:55 AM,70.7,56.7,61,30.00,6.2,SSE,13.8,-,N/A,,Partly Cloudy,160,2013-01-06 06:55:00
10:55 AM,76.1,51.4,42,29.97,6.2,South,18.4,-,N/A,,Clear,170,2013-01-06 07:55:00
11:55 AM,79.2,48.4,34,29.94,6.2,South,16.1,-,N/A,,Clear,170,2013-01-06 08:55:00
12:55 PM,79.7,48.4,33,29.92,6.2,SSE,13.8,-,N/A,,Clear,160,2013-01-06 09:55:00
1:55 PM,81.9,45.3,28,29.89,6.2,South,16.1,-,N/A,,Clear,180,2013-01-06 10:55:00
2:55 PM,80.1,53.2,39,29.88,6.2,SE,11.5,-,N/A,,Clear,130,2013-01-06 11:55:00
3:55 PM,77.7,53.1,42,29.87,6.2,ESE,15.0,-,N/A,,Clear,120,2013-01-06 12:55:00
4:55 PM,74.7,53.6,48,29.86,6.2,SE,13.8,-,N/A,,Clear,130,2013-01-06 13:55:00
5:55 PM,72.0,55.4,56,29.89,6.2,SE,9.2,-,N/A,,Clear,130,2013-01-06 14:55:00
6:55 PM,70.5,56.1,60,29.91,6.2,SE,5.8,-,N/A,,Clear,130,2013-01-06 15:55:00
7:55 PM,68.9,59.0,71,29.91,6.2,ESE,8.1,-,N/A,,Clear,120,2013-01-06 16:55:00
8:55 PM,68.7,61.3,77,29.91,6.2,SE,10.4,-,N/A,,Clear,130,2013-01-06 17:55:00
9:55 PM,68.2,63.5,85,29.91,6.2,ESE,8.1,-,N/A,,Clear,120,2013-01-06 18:55:00
10:55 PM,67.3,61.3,81,29.90,6.2,ESE,4.6,-,N/A,,Clear,120,2013-01-06 19:55:00
11:55 PM,66.9,61.0,81,29.88,6.2,ESE,8.1,-,N/A,,Clear,120,2013-01-06 20:55:00